This is the latest recevied weather packets stored in our database for station/object K3RUP-1. If no packets are shown the sender has not sent any weather packets the latest 10 day(s).
| Time | Temp. | Humidity | Pressure | Rain* | Wind** | Luminosity | Snow |
|---|---|---|---|---|---|---|---|
| 1777854758 | 11.11° C | 58% | 1014 hPa | 0 mm | - | 0 W/m² | - |
| 1777854455 | 11.11° C | 58% | 1014 hPa | 0 mm | - | 0 W/m² | - |
| 1777854152 | 11.67° C | 55% | 1013.8 hPa | 0 mm | - | 0 W/m² | - |
| 1777853850 | 11.67° C | 54% | 1013.8 hPa | 0 mm | - | 0 W/m² | - |
| 1777853546 | 12.22° C | 55% | 1013.8 hPa | 0 mm | - | 0 W/m² | - |
| 1777853243 | 12.78° C | 54% | 1013.7 hPa | 0 mm | - | 0 W/m² | - |
| 1777852940 | 12.78° C | 53% | 1013.7 hPa | 0 mm | - | 0 W/m² | - |
| 1777852638 | 13.33° C | 51% | 1013.6 hPa | 0 mm | - | 0 W/m² | - |
| 1777852335 | 13.33° C | 50% | 1013.6 hPa | 0 mm | - | 1 W/m² | - |
| 1777852033 | 13.89° C | 48% | 1013.7 hPa | 0 mm | - | 3 W/m² | - |
| 1777851731 | 13.89° C | 48% | 1013.4 hPa | 0 mm | - | 6 W/m² | - |
| 1777851428 | 14.44° C | 51% | 1013.5 hPa | 0 mm | - | 6 W/m² | - |
| 1777851123 | 15° C | 47% | 1013.3 hPa | 0 mm | - | 10 W/m² | - |
| 1777850820 | 15° C | 49% | 1013.4 hPa | 0 mm | - | 12 W/m² | - |
| 1777850517 | 15.56° C | 45% | 1013.3 hPa | 0 mm | - | 14 W/m² | - |
| 1777850216 | 15.56° C | 39% | 1013.3 hPa | 0 mm | - | 15 W/m² | - |
| 1777849911 | 15.56° C | 40% | 1013.2 hPa | 0 mm | - | 18 W/m² | - |
| 1777849608 | 15.56° C | 41% | 1013.4 hPa | 0 mm | - | 20 W/m² | - |
| 1777849306 | 16.11° C | 42% | 1013.3 hPa | 0 mm | - | 21 W/m² | - |
| 1777849003 | 16.11° C | 38% | 1013.2 hPa | 0 mm | - | 23 W/m² | - |
| 1777848703 | 16.11° C | 34% | 1013.2 hPa | 0 mm | - | 25 W/m² | - |
| 1777848400 | 16.11° C | 35% | 1013.3 hPa | 0 mm | - | 26 W/m² | - |
| 1777848098 | 16.11° C | 34% | 1013.5 hPa | 0 mm | - | 28 W/m² | - |
| 1777847796 | 16.67° C | 34% | 1013.6 hPa | 0 mm | - | 29 W/m² | - |
| 1777847492 | 16.67° C | 35% | 1013.2 hPa | 0 mm | - | 30 W/m² | - |
* Rain latest hour (hover to see other rain measurements)
** Current wind speed in m/s (hover to see current wind gust speed)